SCP
0 0 0 0 0 0 0 0 0 0 0 0 0 0 0 0 0 0 0 0 0 0 0 0 0 0 0 0 0 0 -0 0 0 0 0 0 0 0 0 0 0 0 0 0 0 0 0
-0 0 -0 0 0 0 0 0 0 0 0 0 0 0 0 0 0 0 0 0 0 0 0 0 0 0 0 0 0 0 0 0 0 0 0 0 0 0 0 0 0 0 0 0 0 0 0
-0 -0 -0 -0 0 0 0 0 0 0 0 0 0 0 0 0 0 0 0 0 0 0 0 0 0 0 0 0 0 0 0 0 0 0 0 0 0 0 0 0 0 0 0 0 0 0 0
-0 -0 -0 -0 -0 0 0 0 0 0 0 0 0 0 0 0 0 0 0 0 0 0 0 0 0 0 0 0 0 0 0 0 0 0 0 0 0 0 0 0 0 0 0 0 0 -0 0
0 -0 -0 -0 -0 0 0 0 0 0 0 0 0 0 0 0 0 0 0 0 0 0 0 0 0 0 0 0 0 0 0 0 0 0 0 0 0 0 0 0 0 0 0 0 0 -0 0
0 -0 -0 -0 -0 0 0 0 0 0 0 0 0 0 0 0 0 0 0 0 0 0 0 0 0 0 0 0 0 0 0 0 0 0 0 0 0 0 0 0 0 0 0 0 0 0 0
0 0 -0 0 -0 0 0 0 0 0 0 0 0 0 0 0 0 0 0 0 0 0 0 0 0 0 0 0 0 0 0 0 0 0 0 0 0 0 0 0 0 0 0 0 0 0 0
0 0 0 0 0 0 0 0 0 0 0 0 0 0 0 0 0 0 0 0 0 0 0 -0 0 0 0 0 0 0 0 0 0 0 0 0 0 0 0 0 0 0 0 0 0 0 0
0 0 0 -0 0 0 0 0 0 0 0 0 0 0 0 0 0 0 0 0 0 0 0 0 0 0 0 0 0 0 0 0 0 0 0 0 0 0 0 0 0 0 0 0 0 0 0
0 0 0 0 0 0 0 0 -0 0 0 0 0 0 0 0 0 0 0 0 0 0 0 0 0 0 0 0 0 0 0 0 0 0 0 0 0 0 0 0 0 0 0 0 0 0 0
0 0 0 0 0 0 0 0 -0 0 0 0 0 0 0 0 0 0 0 0 0 0 0 0 -0 0 0 0 0 0 0 0 0 0 0 0 0 0 0 0 0 0 0 0 0 0 0
0 0 0 0 0 0 0 0 0 0 0 0 0 0 0 0 0 0 0 0 0 0 0 0 0 0 0 0 0 0 0 0 0 0 0 0 0 0 0 0 0 0 0 0 0 0 0
0 0 0 0 0 0 0 0 0 0 0 0 0 0 0 0 0 0 0 0 0 0 0 0 0 0 0 0 0 0 0 0 0 0 0 0 0 0 0 0 0 0 0 0 0 0 0
0 0 0 0 0 0 0 0 0 0 -0 0 0 0 0 0 0 0 0 0 0 0 0 0 0 0 0 0 0 0 0 0 0 0 0 0 0 0 0 0 0 0 0 0 0 0 0
0 0 0 0 0 0 0 0 0 0 0 0 0 0 0 0 0 0 0 0 0 0 0 0 0 0 0 0 0 0 0 0 0 0 0 0 0 0 0 0 0 0 0 0 0 0 0
0 0 0 0 0 0 0 0 0 0 0 0 0 0 0 0 0 0 0 0 0 0 0 0 0 0 0 0 0 0 0 0 0 0 -0 0 0 0 0 0 0 -0 0 0 0 0 0
-0 0 0 0 0 0 0 0 0 0 0 0 0 0 0 0 0 0 0 0 0 0 0 0 0 0 0 0 0 0 0 0 0 0 0 0 0 0 0 0 0 0 0 0 0 0 0
-0 0 0 0 0 -0 -0 -0 0 0 0 0 0 0 0 0 0 0 0 0 0 0 0 0 0 0 0 0 0 0 0 0 0 0 0 0 0 0 0 0 0 0 0 0 0 0 0
-0 -0 0 0 0 0 0 0 0 0 0 0 0 0 0 0 0 0 0 0 0 0 0 0 0 0 0 0 0 0 0 0 0 0 0 0 0 0 0 0 0 0 0 0 0 0 0
-0 -0 -0 0 0 0 0 0 0 0 0 0 0 0 0 0 0 0 0 0 0 0 0 0 0 0 0 0 0 0 0 0 0 0 0 0 0 0 0 0 0 0 0 0 0 0 0
-0 -0 0 -0 0 0 0 0 0 0 0 0 0 0 0 0 0 0 0 0 0 0 0 0 0 0 0 0 0 0 0 0 0 0 0 0 0 0 0 0 0 0 0 0 0 0 0
-0 -0 -0 0 0 0 0 0 0 0 0 0 0 0 0 0 0 0 0 0 0 0 0 0 0 0 0 0 0 0 0 0 0 0 0 0 0 0 0 0 0 0 0 0 0 0 0
-0 -0 -0 0 0 0 0 0 0 0 0 0 0 0 0 0 0 0 0 0 0 0 0 0 0 0 0 0 0 0 0 0 0 0 0 0 0 0 0 0 0 0 0 0 0 0 0
-0 -0 -0 -0 0 0 0 0 0 0 0 0 0 0 0 0 0 0 0 0 0 0 0 0 0 0 0 0 0 0 0 0 0 0 0 0 0 0 0 0 0 0 0 0 0 0 0
0 0 0 -0 0 0 0 0 0 0 0 0 0 0 0 0 0 0 0 0 0 0 0 0 0 0 0 0 0 0 0 0 0 0 0 0 0 0 0 0 0 0 0 0 0 0 0
0 0 0 0 0 0 0 0 0 0 0 0 0 0 0 0 0 0 0 0 0 0 0 0 0 0 0 0 0 0 0 0 0 0 0 0 0 0 0 0 0 0 0 0 0 0 0
0 0 0 0 0 0 0 0 0 0 0 0 0 0 0 0 0 0 0 0 0 0 0 0 0 0 0 0 0 0 0 0 0 0 0 0 0 0 0 0 0 0 0 0 0 0 0
0 0 0 0 0 0 0 0 0 0 0 0 0 0 0 0 0 0 0 0 0 0 0 0 0 0 0 0 0 0 0 0 0 0 0 0 0 0 0 0 0 0 0 0 0 0 0
0 0 0 0 0 0 0 0 0 0 0 0 0 0 0 0 0 0 0 0 0 0 0 0 0 0 0 0 0 0 0 0 0 0 0 0 0 0 0 0 0 0 0 0 0 0 0
Wind_Speed_500mb
100 78 82 40 67 107 96 91 91 96 93 87 84 80 74 68 61 54 47 42 39 36 34 32 31 31 27 17 28 29 28 29 26 22 22 23 25 26 31 27 34 33 35 45 47 48 50
90 109 103 70 32 85 103 95 88 92 95 91 87 82 76 69 62 55 49 43 41 38 35 33 30 29 19 29 15 17 28 21 15 19 23 22 21 19 21 31 30 37 42 42 47 53 52
84 94 115 106 66 50 100 100 92 88 92 92 89 83 77 70 63 56 51 46 43 39 36 33 29 26 27 53 23 15 25 21 16 17 20 18 15 14 18 22 29 33 32 37 44 52 46
88 87 115 122 100 48 85 105 98 90 89 91 89 84 78 71 64 57 51 47 44 40 36 31 26 22 26 21 23 30 37 40 33 28 24 25 15 23 30 28 39 33 36 36 38 40 49
90 91 85 135 115 71 41 90 101 92 88 88 87 84 78 71 64 58 52 48 43 38 34 26 18 12 29 28 40 37 43 42 29 32 27 23 21 33 24 25 23 28 29 38 38 37 35
92 86 87 99 137 94 51 45 97 98 90 87 86 83 77 71 66 59 53 43 36 33 26 16 20 15 39 26 14 13 16 29 31 23 27 31 22 19 20 26 28 29 34 36 36 38 45
91 83 85 86 136 105 58 44 89 100 94 88 85 82 77 72 68 63 57 44 11 13 38 30 23 24 11 15 22 19 16 18 29 27 31 38 22 30 41 39 43 35 38 45 42 40 43
88 82 82 78 87 118 86 51 48 94 97 90 84 82 80 74 71 68 65 44 29 10 19 62 71 59 47 14 14 23 27 26 29 31 38 28 40 38 41 43 42 42 45 46 47 40 42
85 82 79 74 73 112 112 72 55 75 89 92 86 84 78 74 70 72 72 63 17 15 15 41 68 57 75 62 54 38 46 42 29 36 38 42 39 45 45 43 45 44 40 41 45 43 40
79 80 78 77 79 76 128 83 68 53 78 82 93 86 82 76 75 78 72 44 33 5 10 18 40 36 63 56 42 74 62 43 30 46 42 43 47 50 48 46 35 47 38 43 40 39 33
73 74 74 77 77 79 102 97 60 83 66 72 103 97 90 95 72 94 75 50 33 17 10 16 57 20 36 59 10 46 82 73 54 50 30 58 37 40 45 50 38 51 42 45 36 36 38
70 72 72 75 77 78 74 108 70 74 81 55 87 101 94 89 78 69 50 54 39 8 25 13 22 29 36 60 30 8 46 71 52 51 51 63 63 47 42 28 25 31 33 35 23 26 32
66 67 71 72 73 76 75 115 81 76 77 74 67 91 111 109 107 76 76 64 9 14 11 25 18 28 41 39 46 30 28 45 34 37 46 46 64 59 45 33 23 29 29 13 16 18 23
61 66 68 70 73 76 80 95 89 76 70 62 68 89 111 119 102 89 94 24 17 31 48 16 32 39 44 38 48 50 30 37 51 42 26 34 23 63 48 57 32 32 35 14 17 21 24
59 64 69 70 74 79 81 77 95 78 69 55 51 100 109 125 117 114 87 25 25 30 38 29 19 37 43 47 27 43 50 42 46 49 34 22 28 16 44 48 43 39 34 35 33 28 22
57 63 64 64 71 74 82 81 89 85 79 57 72 76 82 94 118 115 40 30 20 44 13 34 40 37 38 47 40 45 42 38 51 56 50 19 3 32 13 48 42 48 27 25 16 12 17
53 56 57 56 62 71 83 84 87 89 100 101 43 28 48 84 113 79 34 20 24 50 45 9 29 27 46 35 44 50 32 28 56 52 45 37 19 22 29 23 32 26 25 22 20 19 9
83 59 40 55 60 59 76 96 87 92 95 84 27 6 50 100 26 12 37 21 25 41 56 12 12 29 38 14 9 39 47 32 21 28 41 33 16 17 31 29 29 29 29 30 18 33 21
69 77 69 50 50 62 67 85 91 96 95 81 31 10 45 81 12 3 2 16 32 40 33 21 24 23 29 5 8 25 25 19 17 4 14 16 12 16 19 25 29 20 30 25 26 28 42
67 64 56 57 66 50 59 71 81 88 94 87 23 9 6 9 17 8 9 18 15 1 23 18 17 4 8 8 14 4 3 8 7 16 24 17 19 22 21 23 11 4 34 42 36 22 28
59 60 58 55 35 44 42 40 57 71 61 48 14 6 12 12 10 16 5 5 4 9 5 19 6 10 13 7 10 9 13 6 9 3 12 8 21 31 40 44 43 35 29 39 35 33 34
59 54 52 50 46 45 23 29 26 23 22 19 20 13 7 5 36 18 21 16 16 4 8 4 9 24 19 12 15 14 18 17 8 14 17 11 7 20 39 46 39 37 45 49 45 39 40
48 51 51 48 43 40 36 30 19 13 9 11 18 29 12 10 16 12 12 14 21 19 4 4 11 9 23 14 13 17 15 16 15 6 7 5 7 8 34 37 35 28 49 49 50 50 41
46 42 44 42 40 36 35 37 32 23 20 11 22 21 4 7 10 15 25 23 23 32 14 14 25 22 20 44 35 24 16 14 11 12 10 12 12 7 16 24 20 29 38 35 39 24 23
42 40 35 36 36 35 33 31 33 34 27 17 20 9 8 6 9 11 20 24 26 35 9 18 13 19 52 22 7 9 5 3 18 17 20 9 8 7 9 19 18 23 7 8 11 2 5
39 37 37 32 30 30 29 25 24 28 22 19 12 14 9 8 6 15 9 24 11 9 7 9 19 46 37 4 6 14 15 13 16 14 34 28 16 7 9 9 15 12 18 13 3 11 6
32 33 33 32 28 23 23 22 21 22 20 19 7 16 9 7 6 14 5 9 19 14 9 10 19 18 14 8 8 9 7 10 16 22 24 14 10 20 16 11 8 20 14 4 8 3 6
27 26 26 27 26 24 20 17 15 14 15 24 9 10 14 6 12 8 6 8 10 14 13 20 14 7 7 11 9 8 8 12 13 18 25 22 16 12 12 12 20 26 7 8 9 14 17
26 24 23 22 19 17 15 12 11 9 11 16 10 8 12 9 8 10 13 10 5 8 14 36 7 23 14 7 9 6 6 8 8 12 22 11 12 11 10 4 7 8 1 14 22 28 31
Wind_Direction_500mb
256 259 242 241 221 235 233 233 227 225 223 222 222 222 226 227 230 233 238 242 249 256 265 276 287 299 310 272 262 294 286 268 264 271 277 274 270 269 260 261 263 261 277 273 270 279 282
253 250 245 247 243 222 232 232 229 226 224 222 222 223 223 227 229 232 236 241 247 254 261 271 282 292 305 264 264 280 275 274 266 258 264 253 257 276 305 284 279 282 294 297 291 282 280
254 254 244 243 249 223 226 230 229 226 224 223 222 222 223 225 227 229 231 237 243 250 257 267 278 294 276 252 244 247 275 257 244 252 260 240 261 271 304 282 266 275 275 273 268 269 265
252 251 247 242 242 248 217 230 228 226 224 222 222 222 222 222 224 226 229 232 240 247 254 262 277 292 262 246 248 250 246 250 254 247 243 248 261 271 267 276 286 278 268 269 271 259 258
247 249 251 240 241 243 232 223 227 226 223 223 221 222 221 220 221 223 225 230 235 243 253 262 280 289 272 263 246 267 239 237 245 249 245 250 257 246 259 240 265 234 253 264 271 262 282
242 243 244 242 236 235 240 227 230 224 223 221 221 220 220 217 217 216 217 221 231 240 252 259 254 280 250 235 229 224 220 218 225 244 225 233 220 232 213 225 232 244 257 283 298 307 312
239 238 239 243 233 230 230 239 229 224 222 221 219 219 217 214 214 211 205 197 190 241 212 208 204 216 251 201 219 218 200 177 189 208 215 205 212 218 227 223 247 268 272 271 274 285 292
234 234 234 241 235 228 225 237 234 227 221 221 217 217 215 211 211 211 210 193 204 298 249 233 239 241 242 267 244 216 185 184 194 210 217 232 229 232 236 238 248 260 273 276 283 291 295
229 231 231 235 235 230 223 224 234 224 221 218 216 216 212 208 208 210 206 204 169 296 267 254 236 235 229 237 236 222 189 211 209 221 221 228 234 218 235 246 254 259 265 279 284 292 294
227 227 226 228 231 234 219 219 230 223 225 222 217 212 209 202 204 206 206 204 220 289 283 255 208 246 219 215 242 229 223 212 214 238 227 241 249 253 263 241 250 258 261 272 287 292 283
225 226 228 227 226 230 223 214 222 224 226 228 218 211 207 203 193 202 203 178 206 145 256 204 210 188 185 190 152 214 219 224 230 230 216 238 244 244 246 257 264 280 286 278 267 280 289
226 226 228 227 225 226 227 211 217 219 225 229 233 214 203 204 200 203 181 176 154 102 233 259 137 183 183 201 216 120 199 215 228 238 250 256 256 259 259 282 271 273 275 258 257 267 260
226 226 226 227 226 223 227 212 212 212 224 231 246 231 205 199 198 189 171 161 140 207 203 220 166 181 193 197 210 194 195 198 201 216 236 254 250 254 253 249 241 245 241 225 226 221 244
228 228 223 223 225 223 225 218 208 211 220 230 253 243 218 202 195 181 169 165 205 208 222 269 170 186 202 198 209 216 204 214 211 210 260 223 246 225 222 231 224 216 220 201 213 225 252
230 228 226 224 222 223 222 219 209 208 211 220 233 221 213 205 193 181 167 197 207 189 200 222 200 203 206 208 197 196 212 216 214 214 217 222 231 180 201 209 204 228 214 230 268 289 291
232 227 224 227 227 222 216 208 206 207 201 203 226 201 202 194 189 174 176 197 222 212 188 214 229 213 200 205 207 191 191 217 215 202 225 271 192 169 162 190 200 235 206 213 220 244 239
229 226 226 228 218 214 209 202 200 197 200 214 233 192 187 187 184 183 194 189 220 213 219 174 222 244 237 207 200 194 198 211 204 190 210 230 255 190 164 186 186 200 235 236 232 229 250
86 110 178 206 216 221 208 205 197 200 210 212 182 161 182 177 183 195 199 172 213 205 214 169 271 243 258 254 245 212 216 199 186 199 198 204 227 208 201 188 221 224 213 227 224 237 245
57 62 75 125 160 159 172 196 204 199 201 188 143 116 168 187 194 109 320 176 199 200 200 191 196 227 211 87 202 239 269 329 327 144 228 126 231 205 214 247 267 236 248 250 226 226 244
53 47 50 56 71 108 145 164 166 179 180 183 133 137 122 132 98 127 168 183 162 79 179 185 199 145 90 149 222 240 180 248 283 308 19 9 223 213 226 234 216 233 255 248 247 243 252
52 53 47 49 59 52 86 135 161 170 175 160 120 206 166 164 161 155 193 3 108 137 34 171 201 162 133 151 201 213 227 33 310 215 302 320 250 247 252 259 265 273 255 252 247 257 244
45 51 57 59 47 46 62 61 132 154 168 148 129 141 177 164 137 142 144 172 169 100 138 155 135 189 181 170 192 189 231 215 205 254 224 221 246 267 263 260 269 275 263 264 270 261 254
42 46 52 55 59 62 63 53 71 86 193 59 98 128 128 144 129 137 179 164 181 139 311 279 178 159 206 174 113 99 94 111 146 194 229 106 184 198 251 252 257 262 250 258 265 263 267
46 38 42 50 55 62 66 63 62 64 86 123 127 137 90 145 147 172 163 176 177 182 156 189 199 186 148 139 109 88 77 99 148 194 197 156 159 167 248 262 231 258 254 253 256 254 335
29 43 46 37 45 53 58 68 75 77 72 86 113 106 116 106 126 163 176 187 188 190 141 170 170 172 153 135 114 127 127 151 214 199 191 178 137 181 216 225 297 296 343 352 346 185 57
20 25 31 44 38 44 56 66 82 88 87 86 83 82 86 127 153 143 103 149 135 134 123 132 133 156 150 132 166 195 195 206 177 191 197 188 209 204 164 228 221 106 92 53 308 247 112
11 13 19 24 33 41 36 50 85 121 100 81 60 60 41 93 91 114 114 152 137 158 123 132 144 160 174 173 178 184 182 208 177 174 182 177 173 214 227 247 263 272 129 87 229 14 332
8 8 6 9 14 21 32 38 50 107 113 69 38 47 20 38 143 127 119 123 145 145 156 151 118 181 168 190 189 176 191 206 201 175 183 176 181 195 229 248 259 122 140 232 7 322 305
355 356 352 351 352 359 11 21 22 45 131 74 36 312 29 20 92 111 110 124 161 172 120 169 61 155 165 188 210 125 212 154 222 215 179 197 228 201 194 185 134 124 258 276 297 302 306
Wind_Speed_850mb
100 78 82 40 67 107 96 91 91 96 93 87 84 80 74 68 61 54 47 42 39 36 34 32 31 31 27 17 28 29 28 29 26 22 22 23 25 26 31 27 34 33 35 45 47 48 50
90 109 103 70 32 85 103 95 88 92 95 91 87 82 76 69 62 55 49 43 41 38 35 33 30 29 19 29 15 17 28 21 15 19 23 22 21 19 21 31 30 37 42 42 47 53 52
84 94 115 106 66 50 100 100 92 88 92 92 89 83 77 70 63 56 51 46 43 39 36 33 29 26 27 53 23 15 25 21 16 17 20 18 15 14 18 22 29 33 32 37 44 52 46
88 87 115 122 100 48 85 105 98 90 89 91 89 84 78 71 64 57 51 47 44 40 36 31 26 22 26 21 23 30 37 40 33 28 24 25 15 23 30 28 39 33 36 36 38 40 49
90 91 85 135 115 71 41 90 101 92 88 88 87 84 78 71 64 58 52 48 43 38 34 26 18 12 29 28 40 37 43 42 29 32 27 23 21 33 24 25 23 28 29 38 38 37 35
92 86 87 99 137 94 51 45 97 98 90 87 86 83 77 71 66 59 53 43 36 33 26 16 20 15 39 26 14 13 16 29 31 23 27 31 22 19 20 26 28 29 34 36 36 38 45
91 83 85 86 136 105 58 44 89 100 94 88 85 82 77 72 68 63 57 44 11 13 38 30 23 24 11 15 22 19 16 18 29 27 31 38 22 30 41 39 43 35 38 45 42 40 43
88 82 82 78 87 118 86 51 48 94 97 90 84 82 80 74 71 68 65 44 29 10 19 62 71 59 47 14 14 23 27 26 29 31 38 28 40 38 41 43 42 42 45 46 47 40 42
85 82 79 74 73 112 112 72 55 75 89 92 86 84 78 74 70 72 72 63 17 15 15 41 68 57 75 62 54 38 46 42 29 36 38 42 39 45 45 43 45 44 40 41 45 43 40
79 80 78 77 79 76 128 83 68 53 78 82 93 86 82 76 75 78 72 44 33 5 10 18 40 36 63 56 42 74 62 43 30 46 42 43 47 50 48 46 35 47 38 43 40 39 33
73 74 74 77 77 79 102 97 60 83 66 72 103 97 90 95 72 94 75 50 33 17 10 16 57 20 36 59 10 46 82 73 54 50 30 58 37 40 45 50 38 51 42 45 36 36 38
70 72 72 75 77 78 74 108 70 74 81 55 87 101 94 89 78 69 50 54 39 8 25 13 22 29 36 60 30 8 46 71 52 51 51 63 63 47 42 28 25 31 33 35 23 26 32
66 67 71 72 73 76 75 115 81 76 77 74 67 91 111 109 107 76 76 64 9 14 11 25 18 28 41 39 46 30 28 45 34 37 46 46 64 59 45 33 23 29 29 13 16 18 23
61 66 68 70 73 76 80 95 89 76 70 62 68 89 111 119 102 89 94 24 17 31 48 16 32 39 44 38 48 50 30 37 51 42 26 34 23 63 48 57 32 32 35 14 17 21 24
59 64 69 70 74 79 81 77 95 78 69 55 51 100 109 125 117 114 87 25 25 30 38 29 19 37 43 47 27 43 50 42 46 49 34 22 28 16 44 48 43 39 34 35 33 28 22
57 63 64 64 71 74 82 81 89 85 79 57 72 76 82 94 118 115 40 30 20 44 13 34 40 37 38 47 40 45 42 38 51 56 50 19 3 32 13 48 42 48 27 25 16 12 17
53 56 57 56 62 71 83 84 87 89 100 101 43 28 48 84 113 79 34 20 24 50 45 9 29 27 46 35 44 50 32 28 56 52 45 37 19 22 29 23 32 26 25 22 20 19 9
83 59 40 55 60 59 76 96 87 92 95 84 27 6 50 100 26 12 37 21 25 41 56 12 12 29 38 14 9 39 47 32 21 28 41 33 16 17 31 29 29 29 29 30 18 33 21
69 77 69 50 50 62 67 85 91 96 95 81 31 10 45 81 12 3 2 16 32 40 33 21 24 23 29 5 8 25 25 19 17 4 14 16 12 16 19 25 29 20 30 25 26 28 42
67 64 56 57 66 50 59 71 81 88 94 87 23 9 6 9 17 8 9 18 15 1 23 18 17 4 8 8 14 4 3 8 7 16 24 17 19 22 21 23 11 4 34 42 36 22 28
59 60 58 55 35 44 42 40 57 71 61 48 14 6 12 12 10 16 5 5 4 9 5 19 6 10 13 7 10 9 13 6 9 3 12 8 21 31 40 44 43 35 29 39 35 33 34
59 54 52 50 46 45 23 29 26 23 22 19 20 13 7 5 36 18 21 16 16 4 8 4 9 24 19 12 15 14 18 17 8 14 17 11 7 20 39 46 39 37 45 49 45 39 40
48 51 51 48 43 40 36 30 19 13 9 11 18 29 12 10 16 12 12 14 21 19 4 4 11 9 23 14 13 17 15 16 15 6 7 5 7 8 34 37 35 28 49 49 50 50 41
46 42 44 42 40 36 35 37 32 23 20 11 22 21 4 7 10 15 25 23 23 32 14 14 25 22 20 44 35 24 16 14 11 12 10 12 12 7 16 24 20 29 38 35 39 24 23
42 40 35 36 36 35 33 31 33 34 27 17 20 9 8 6 9 11 20 24 26 35 9 18 13 19 52 22 7 9 5 3 18 17 20 9 8 7 9 19 18 23 7 8 11 2 5
39 37 37 32 30 30 29 25 24 28 22 19 12 14 9 8 6 15 9 24 11 9 7 9 19 46 37 4 6 14 15 13 16 14 34 28 16 7 9 9 15 12 18 13 3 11 6
32 33 33 32 28 23 23 22 21 22 20 19 7 16 9 7 6 14 5 9 19 14 9 10 19 18 14 8 8 9 7 10 16 22 24 14 10 20 16 11 8 20 14 4 8 3 6
27 26 26 27 26 24 20 17 15 14 15 24 9 10 14 6 12 8 6 8 10 14 13 20 14 7 7 11 9 8 8 12 13 18 25 22 16 12 12 12 20 26 7 8 9 14 17
26 24 23 22 19 17 15 12 11 9 11 16 10 8 12 9 8 10 13 10 5 8 14 36 7 23 14 7 9 6 6 8 8 12 22 11 12 11 10 4 7 8 1 14 22 28 31
Wind_Direction_850mb
256 259 242 241 221 235 233 233 227 225 223 222 222 222 226 227 230 233 238 242 249 256 265 276 287 299 310 272 262 294 286 268 264 271 277 274 270 269 260 261 263 261 277 273 270 279 282
253 250 245 247 243 222 232 232 229 226 224 222 222 223 223 227 229 232 236 241 247 254 261 271 282 292 305 264 264 280 275 274 266 258 264 253 257 276 305 284 279 282 294 297 291 282 280
254 254 244 243 249 223 226 230 229 226 224 223 222 222 223 225 227 229 231 237 243 250 257 267 278 294 276 252 244 247 275 257 244 252 260 240 261 271 304 282 266 275 275 273 268 269 265
252 251 247 242 242 248 217 230 228 226 224 222 222 222 222 222 224 226 229 232 240 247 254 262 277 292 262 246 248 250 246 250 254 247 243 248 261 271 267 276 286 278 268 269 271 259 258
247 249 251 240 241 243 232 223 227 226 223 223 221 222 221 220 221 223 225 230 235 243 253 262 280 289 272 263 246 267 239 237 245 249 245 250 257 246 259 240 265 234 253 264 271 262 282
242 243 244 242 236 235 240 227 230 224 223 221 221 220 220 217 217 216 217 221 231 240 252 259 254 280 250 235 229 224 220 218 225 244 225 233 220 232 213 225 232 244 257 283 298 307 312
239 238 239 243 233 230 230 239 229 224 222 221 219 219 217 214 214 211 205 197 190 241 212 208 204 216 251 201 219 218 200 177 189 208 215 205 212 218 227 223 247 268 272 271 274 285 292
234 234 234 241 235 228 225 237 234 227 221 221 217 217 215 211 211 211 210 193 204 298 249 233 239 241 242 267 244 216 185 184 194 210 217 232 229 232 236 238 248 260 273 276 283 291 295
229 231 231 235 235 230 223 224 234 224 221 218 216 216 212 208 208 210 206 204 169 296 267 254 236 235 229 237 236 222 189 211 209 221 221 228 234 218 235 246 254 259 265 279 284 292 294
227 227 226 228 231 234 219 219 230 223 225 222 217 212 209 202 204 206 206 204 220 289 283 255 208 246 219 215 242 229 223 212 214 238 227 241 249 253 263 241 250 258 261 272 287 292 283
225 226 228 227 226 230 223 214 222 224 226 228 218 211 207 203 193 202 203 178 206 145 256 204 210 188 185 190 152 214 219 224 230 230 216 238 244 244 246 257 264 280 286 278 267 280 289
226 226 228 227 225 226 227 211 217 219 225 229 233 214 203 204 200 203 181 176 154 102 233 259 137 183 183 201 216 120 199 215 228 238 250 256 256 259 259 282 271 273 275 258 257 267 260
226 226 226 227 226 223 227 212 212 212 224 231 246 231 205 199 198 189 171 161 140 207 203 220 166 181 193 197 210 194 195 198 201 216 236 254 250 254 253 249 241 245 241 225 226 221 244
228 228 223 223 225 223 225 218 208 211 220 230 253 243 218 202 195 181 169 165 205 208 222 269 170 186 202 198 209 216 204 214 211 210 260 223 246 225 222 231 224 216 220 201 213 225 252
230 228 226 224 222 223 222 219 209 208 211 220 233 221 213 205 193 181 167 197 207 189 200 222 200 203 206 208 197 196 212 216 214 214 217 222 231 180 201 209 204 228 214 230 268 289 291
232 227 224 227 227 222 216 208 206 207 201 203 226 201 202 194 189 174 176 197 222 212 188 214 229 213 200 205 207 191 191 217 215 202 225 271 192 169 162 190 200 235 206 213 220 244 239
229 226 226 228 218 214 209 202 200 197 200 214 233 192 187 187 184 183 194 189 220 213 219 174 222 244 237 207 200 194 198 211 204 190 210 230 255 190 164 186 186 200 235 236 232 229 250
86 110 178 206 216 221 208 205 197 200 210 212 182 161 182 177 183 195 199 172 213 205 214 169 271 243 258 254 245 212 216 199 186 199 198 204 227 208 201 188 221 224 213 227 224 237 245
57 62 75 125 160 159 172 196 204 199 201 188 143 116 168 187 194 109 320 176 199 200 200 191 196 227 211 87 202 239 269 329 327 144 228 126 231 205 214 247 267 236 248 250 226 226 244
53 47 50 56 71 108 145 164 166 179 180 183 133 137 122 132 98 127 168 183 162 79 179 185 199 145 90 149 222 240 180 248 283 308 19 9 223 213 226 234 216 233 255 248 247 243 252
52 53 47 49 59 52 86 135 161 170 175 160 120 206 166 164 161 155 193 3 108 137 34 171 201 162 133 151 201 213 227 33 310 215 302 320 250 247 252 259 265 273 255 252 247 257 244
45 51 57 59 47 46 62 61 132 154 168 148 129 141 177 164 137 142 144 172 169 100 138 155 135 189 181 170 192 189 231 215 205 254 224 221 246 267 263 260 269 275 263 264 270 261 254
42 46 52 55 59 62 63 53 71 86 193 59 98 128 128 144 129 137 179 164 181 139 311 279 178 159 206 174 113 99 94 111 146 194 229 106 184 198 251 252 257 262 250 258 265 263 267
46 38 42 50 55 62 66 63 62 64 86 123 127 137 90 145 147 172 163 176 177 182 156 189 199 186 148 139 109 88 77 99 148 194 197 156 159 167 248 262 231 258 254 253 256 254 335
29 43 46 37 45 53 58 68 75 77 72 86 113 106 116 106 126 163 176 187 188 190 141 170 170 172 153 135 114 127 127 151 214 199 191 178 137 181 216 225 297 296 343 352 346 185 57
20 25 31 44 38 44 56 66 82 88 87 86 83 82 86 127 153 143 103 149 135 134 123 132 133 156 150 132 166 195 195 206 177 191 197 188 209 204 164 228 221 106 92 53 308 247 112
11 13 19 24 33 41 36 50 85 121 100 81 60 60 41 93 91 114 114 152 137 158 123 132 144 160 174 173 178 184 182 208 177 174 182 177 173 214 227 247 263 272 129 87 229 14 332
8 8 6 9 14 21 32 38 50 107 113 69 38 47 20 38 143 127 119 123 145 145 156 151 118 181 168 190 189 176 191 206 201 175 183 176 181 195 229 248 259 122 140 232 7 322 305
355 356 352 351 352 359 11 21 22 45 131 74 36 312 29 20 92 111 110 124 161 172 120 169 61 155 165 188 210 125 212 154 222 215 179 197 228 201 194 185 134 124 258 276 297 302 306